When you browse on this site, cookies collect data to enhance your experience and personalize the content and advertising you see.
Visit our Privacy Policy to learn more. By continuing to use the site, you agree to this use of cookies and data.
  • In Hungary
  • List of Countries
  • For 7 days
  • Water Temperature
  • Satellite Maps
  • Weather Map
  • News
  • Weather Widgets
  • user-avatar
    Login

    Hourly Weather Olenevka

    Today, 23 July, Tuesday

    Time Temperature Precipitation Wind Pressure Humidity
    00:00 +25°C° 0 mm 3 mps 757 mmHg 72%
    01:00 +25°C° 0 mm 3 mps 757 mmHg 74%
    02:00 +25°C° 0 mm 3 mps 756 mmHg 75%
    03:00 +24°C° 0 mm 3 mps 756 mmHg 76%
    04:00 +24°C° 0 mm 3 mps 756 mmHg 78%
    05:00 +23°C° 0 mm 4 mps 756 mmHg 79%
    06:00 +25°C° 0 mm 4 mps 756 mmHg 70%
    07:00 +27°C° 0 mm 4 mps 756 mmHg 61%
    08:00 +29°C° 0 mm 4 mps 756 mmHg 52%
    09:00 +30°C° 0 mm 4 mps 756 mmHg 49%
    10:00 +30°C° 0 mm 4 mps 755 mmHg 46%
    11:00 +32°C° 0 mm 5 mps 755 mmHg 43%
    12:00 +32°C° 0 mm 5 mps 755 mmHg 42%
    13:00 +33°C° 0 mm 6 mps 755 mmHg 41%
    14:00 +33°C° 0 mm 6 mps 754 mmHg 40%
    15:00 +32°C° 0 mm 6 mps 754 mmHg 42%
    16:00 +30°C° 0 mm 6 mps 754 mmHg 45%
    17:00 +30°C° 0 mm 6 mps 754 mmHg 47%
    18:00 +29°C° 0 mm 6 mps 754 mmHg 55%
    19:00 +27°C° 0 mm 6 mps 754 mmHg 62%
    20:00 +26°C° 0 mm 6 mps 754 mmHg 69%
    21:00 +24°C° 0.3 mm 6 mps 754 mmHg 71%
    22:00 +23°C° 0.3 mm 7 mps 754 mmHg 72%
    23:00 +23°C° 0.3 mm 7 mps 754 mmHg 73%

    Tomorrow, 24 July, Wednesday

    Time Temperature Precipitation Wind Pressure Humidity
    00:00 +22°C° 0.1 mm 7 mps 754 mmHg 74%
    01:00 +22°C° 0.1 mm 7 mps 754 mmHg 75%
    02:00 +22°C° 0.1 mm 7 mps 753 mmHg 77%
    03:00 +22°C° 0.3 mm 7 mps 753 mmHg 77%
    04:00 +22°C° 0.3 mm 6 mps 753 mmHg 77%
    05:00 +21°C° 0.3 mm 6 mps 753 mmHg 77%
    06:00 +23°C° 0.4 mm 6 mps 753 mmHg 70%
    07:00 +24°C° 0.4 mm 7 mps 754 mmHg 63%
    08:00 +26°C° 0.4 mm 7 mps 754 mmHg 56%
    09:00 +27°C° 0 mm 7 mps 754 mmHg 50%
    10:00 +28°C° 0 mm 7 mps 754 mmHg 44%
    11:00 +29°C° 0 mm 6 mps 754 mmHg 38%
    12:00 +29°C° 0 mm 7 mps 754 mmHg 37%
    13:00 +29°C° 0 mm 8 mps 754 mmHg 37%
    14:00 +31°C° 0 mm 8 mps 754 mmHg 36%
    15:00 +29°C° 0 mm 8 mps 754 mmHg 39%
    16:00 +29°C° 0 mm 8 mps 754 mmHg 43%
    17:00 +28°C° 0 mm 8 mps 754 mmHg 46%
    18:00 +27°C° 0 mm 7 mps 754 mmHg 51%
    19:00 +26°C° 0 mm 7 mps 754 mmHg 56%
    20:00 +24°C° 0 mm 7 mps 754 mmHg 62%
    21:00 +24°C° 0.1 mm 7 mps 754 mmHg 64%
    22:00 +24°C° 0.1 mm 7 mps 755 mmHg 66%
    23:00 +24°C° 0.1 mm 7 mps 755 mmHg 68%

    Day after tomorrow, 25 July, Thursday

    Time Temperature Precipitation Wind Pressure Humidity
    00:00 +23°C° 0.2 mm 6 mps 755 mmHg 69%
    01:00 +23°C° 0.2 mm 5 mps 755 mmHg 71%
    02:00 +22°C° 0.2 mm 4 mps 754 mmHg 72%
    03:00 +22°C° 0.2 mm 5 mps 755 mmHg 73%
    04:00 +22°C° 0.2 mm 5 mps 755 mmHg 74%
    05:00 +22°C° 0.2 mm 5 mps 755 mmHg 75%
    06:00 +23°C° 0 mm 5 mps 755 mmHg 70%
    07:00 +25°C° 0 mm 5 mps 755 mmHg 65%
    08:00 +26°C° 0 mm 6 mps 755 mmHg 60%
    09:00 +27°C° 0 mm 6 mps 755 mmHg 56%
    10:00 +27°C° 0 mm 6 mps 756 mmHg 52%
    11:00 +28°C° 0 mm 6 mps 756 mmHg 49%
    12:00 +28°C° 0 mm 7 mps 756 mmHg 48%
    13:00 +29°C° 0 mm 7 mps 756 mmHg 47%
    14:00 +29°C° 0 mm 7 mps 755 mmHg 46%
    15:00 +29°C° 0 mm 7 mps 755 mmHg 45%
    16:00 +29°C° 0 mm 7 mps 755 mmHg 45%
    17:00 +28°C° 0 mm 7 mps 755 mmHg 44%
    18:00 +27°C° 0 mm 7 mps 755 mmHg 49%
    19:00 +26°C° 0 mm 7 mps 756 mmHg 54%
    20:00 +24°C° 0 mm 7 mps 756 mmHg 58%
    21:00 +24°C° 0 mm 7 mps 756 mmHg 62%
    22:00 +24°C° 0 mm 6 mps 756 mmHg 66%
    23:00 +23°C° 0 mm 6 mps 756 mmHg 70%

    26 July, Friday

    Time Temperature Precipitation Wind Pressure Humidity
    00:00 +23°C° 0 mm 6 mps 756 mmHg 70%
    01:00 +23°C° 0 mm 5 mps 756 mmHg 70%
    02:00 +23°C° 0 mm 4 mps 756 mmHg 70%
    03:00 +22°C° 0 mm 3 mps 756 mmHg 71%
    04:00 +21°C° 0 mm 2 mps 756 mmHg 72%
    05:00 +21°C° 0 mm 2 mps 756 mmHg 73%
    06:00 +24°C° 0 mm 2 mps 755 mmHg 64%
    07:00 +26°C° 0 mm 1 mps 755 mmHg 54%
    08:00 +28°C° 0 mm 1 mps 755 mmHg 45%
    09:00 +29°C° 0 mm 1 mps 755 mmHg 41%
    10:00 +30°C° 0 mm 1 mps 755 mmHg 37%
    11:00 +30°C° 0 mm 1 mps 755 mmHg 34%
    12:00 +30°C° 0 mm 1 mps 755 mmHg 34%
    13:00 +31°C° 0 mm 2 mps 755 mmHg 34%
    14:00 +31°C° 0 mm 2 mps 754 mmHg 34%
    15:00 +30°C° 0 mm 2 mps 754 mmHg 36%
    16:00 +30°C° 0 mm 3 mps 754 mmHg 38%
    17:00 +29°C° 0 mm 3 mps 754 mmHg 39%
    18:00 +28°C° 0 mm 3 mps 754 mmHg 46%
    19:00 +26°C° 0 mm 3 mps 754 mmHg 52%
    20:00 +25°C° 0 mm 3 mps 754 mmHg 58%
    21:00 +25°C° 0.1 mm 4 mps 754 mmHg 64%
    22:00 +23°C° 0.1 mm 4 mps 754 mmHg 70%
    23:00 +23°C° 0.1 mm 4 mps 753 mmHg 76%

    27 July, Saturday

    Time Temperature Precipitation Wind Pressure Humidity
    00:00 +23°C° 0.1 mm 4 mps 753 mmHg 77%
    01:00 +22°C° 0.1 mm 4 mps 753 mmHg 78%
    02:00 +22°C° 0.1 mm 4 mps 752 mmHg 79%
    03:00 +22°C° 0.1 mm 4 mps 752 mmHg 79%
    04:00 +22°C° 0.1 mm 4 mps 752 mmHg 79%
    05:00 +22°C° 0.1 mm 3 mps 752 mmHg 79%
    06:00 +25°C° 0.1 mm 4 mps 752 mmHg 69%
    07:00 +27°C° 0.1 mm 4 mps 752 mmHg 59%
    08:00 +29°C° 0.1 mm 4 mps 752 mmHg 50%
    09:00 +29°C° 0.1 mm 4 mps 752 mmHg 47%
    10:00 +30°C° 0.1 mm 4 mps 752 mmHg 45%
    11:00 +32°C° 0.1 mm 5 mps 752 mmHg 43%
    12:00 +32°C° 0 mm 5 mps 752 mmHg 42%
    13:00 +32°C° 0 mm 5 mps 751 mmHg 41%
    14:00 +32°C° 0 mm 5 mps 751 mmHg 40%
    15:00 +32°C° 0 mm 5 mps 751 mmHg 42%
    16:00 +30°C° 0 mm 5 mps 751 mmHg 44%
    17:00 +29°C° 0 mm 5 mps 750 mmHg 46%
    18:00 +28°C° 0 mm 5 mps 750 mmHg 55%
    19:00 +26°C° 0 mm 4 mps 750 mmHg 63%
    20:00 +23°C° 0 mm 4 mps 750 mmHg 72%
    21:00 +23°C° 0 mm 4 mps 750 mmHg 74%
    22:00 +24°C° 0 mm 3 mps 750 mmHg 77%
    23:00 +24°C° 0 mm 3 mps 750 mmHg 79%

    28 July, Sunday

    Time Temperature Precipitation Wind Pressure Humidity
    00:00 +24°C° 0 mm 3 mps 750 mmHg 80%
    01:00 +22°C° 0 mm 3 mps 750 mmHg 81%
    02:00 +22°C° 0 mm 3 mps 750 mmHg 82%
    03:00 +22°C° 0 mm 3 mps 750 mmHg 82%
    04:00 +23°C° 0 mm 2 mps 749 mmHg 82%
    05:00 +24°C° 0 mm 2 mps 749 mmHg 81%
    06:00 +25°C° 0.1 mm 2 mps 749 mmHg 73%
    07:00 +26°C° 0.1 mm 2 mps 749 mmHg 66%
    08:00 +27°C° 0.1 mm 2 mps 749 mmHg 58%
    09:00 +29°C° 0 mm 2 mps 749 mmHg 50%
    10:00 +30°C° 0 mm 2 mps 749 mmHg 43%
    11:00 +32°C° 0 mm 2 mps 750 mmHg 35%
    12:00 +31°C° 0 mm 3 mps 749 mmHg 41%
    13:00 +30°C° 0 mm 3 mps 749 mmHg 46%
    14:00 +29°C° 0 mm 3 mps 749 mmHg 51%
    15:00 +28°C° 0 mm 3 mps 749 mmHg 56%
    16:00 +27°C° 0 mm 4 mps 749 mmHg 62%
    17:00 +26°C° 0 mm 4 mps 749 mmHg 67%
    18:00 +25°C° 0 mm 3 mps 749 mmHg 71%
    19:00 +24°C° 0 mm 3 mps 749 mmHg 76%
    20:00 +24°C° 0 mm 2 mps 749 mmHg 80%
    21:00 +23°C° 0 mm 2 mps 749 mmHg 80%
    22:00 +23°C° 0 mm 2 mps 749 mmHg 79%
    23:00 +23°C° 0 mm 2 mps 749 mmHg 79%
    Show more